Regional Weather Roundup
Issued by NWS

Home | Current Version | Previous Version | Text Only | Print | Product List | Glossary On
Versions: 1 2 3 4 5 6 7 8 9 10 11 12 13 14 15 16 17 18 19 20 21 22 23 24 25 26 27 28 29 30 31 32 33 34 35 36 37 38 39 40 41 42 43 44 45 46 47 48 49 50
000
ASUS44 KLIX 270610
RWRLA
LOUISIANA WEATHER ROUNDUP
NATIONAL WEATHER SERVICE NEW ORLEANS LA
1200 AM CST SAT DEC 27 2014

NOTE: "FAIR" INDICATES FEW OR NO CLOUDS BELOW 12,000 FEET WITH NO
      SIGNIFICANT WEATHER AND/OR OBSTRUCTIONS TO VISIBILITY.
      SKY/WX - SKY CONDITION AND SIGNIFICANT WEATHER.
      TMP - AIR TEMPERATURE.    DP   - DEWPOINT TEMPERATURE.
      RH  - RELATIVE HUMIDITY.  PRES - PRESSURE.
      HX  - HEAT INDEX.         WCI  - WIND CHILL INDEX.

*  THESE STATIONS ARE NOT NWS OR FAA STATIONS AND ARE NOT UNDER
   NWS QUALITY CONTROL.

LAZ040-048-061>063-065-066-069-270700-
SOUTHEAST LOUISIANA

CITY           SKY/WX    TMP DP  RH WIND       PRES   REMARKS
N.O. AUDUBON     N/A     64  59  84 MISG        N/A
6HR MIN TEMP:  62; 6HR MAX TEMP:  65;

N.O. INTL ARPT CLOUDY    66  57  72 SE12      30.12F
6HR MIN TEMP:  62; 6HR MAX TEMP:  66;

N.O. LAKEFRONT CLOUDY    64  58  80 E15       30.13F
6HR MIN TEMP:  62; 6HR MAX TEMP:  64;

N.O. DOWNTOWN* CLOUDY    64  55  72 E9        30.13F
6HR MIN TEMP:  63; 6HR MAX TEMP:  64;

SLIDELL        CLOUDY    62  57  83 E10G20    30.14F
6HR MIN TEMP:  62; 6HR MAX TEMP:  64;

BATON ROUGE    HVY RAIN  60  58  92 E8        30.14S FOG
6HR MIN TEMP:  58; 6HR MAX TEMP:  61; 6HR PCP:  0.08;

BOOTHVILLE     CLOUDY    65  61  87 SE9       30.13F
6HR MIN TEMP:  62; 6HR MAX TEMP:  67;

BELLE CHASSE   CLOUDY    62  58  86 E9        30.12F
6HR MIN TEMP:  62; 6HR MAX TEMP:  63;

BOGALUSA*        N/A     62  54  73 SE13      30.17S
6HR MIN TEMP:  62; 6HR MAX TEMP:  66;

GALLIANO*      CLOUDY    66  62  85 MISG      30.11F
6HR MIN TEMP:  65; 6HR MAX TEMP:  67;

NEW ROADS*     CLOUDY    58  58  97 E6        30.13S
6HR MIN TEMP:  58; 6HR MAX TEMP:  60; 6HR PCP:  0.01;

GONZALES*      DRIZZLE   59  59 100 N3        30.11F
6HR MIN TEMP:  59; 6HR MAX TEMP:  62; 6HR PCP:  0.22;

HAMMOND*       NOT AVBL
HOUMA*         CLOUDY    65  63  90 E16G23    30.10S
6HR MIN TEMP:  63; 6HR MAX TEMP:  65; 6HR PCP:  0.01;

PORT FOURCHON* MOCLDY    68  64  88 SE10G17   30.14S

$$

LAZ041-044-053-054-270700-
SOUTHWEST LOUISIANA

CITY           SKY/WX    TMP DP  RH WIND       PRES   REMARKS
LAKE CHARLES   CLOUDY    62  60  93 SE12      30.06F
6HR MIN TEMP:  61; 6HR MAX TEMP:  62;

LAFAYETTE      CLOUDY    60  58  92 E6        30.11S
6HR MIN TEMP:  59; 6HR MAX TEMP:  60; 6HR PCP:  0.04;

PATTERSON      CLOUDY    59  57  94 NE6       30.13F
6HR MIN TEMP:  59; 6HR MAX TEMP:  61;

SALT POINT       N/A     72  61  68 CALM      30.10
6HR MIN TEMP:  71; 6HR MAX TEMP:  75;

NEW IBERIA     CLOUDY    61  59  93 E7        30.11F
6HR MIN TEMP:  60; 6HR MAX TEMP:  62; 6HR PCP:  0.02;

CHENAULT AIRPK CLOUDY    63  61  93 E7        30.07F
6HR MIN TEMP:  62; 6HR MAX TEMP:  63;


$$

LAZ027-028-270700-
CENTRAL LOUISIANA

CITY           SKY/WX    TMP DP  RH WIND       PRES   REMARKS
FORT POLK      NOT AVBL
ALEXANDRIA INT CLOUDY    59  57  93 SE9       30.09F
6HR MIN TEMP:  58; 6HR MAX TEMP:  60;

ALEXANDRIA     CLOUDY    61  56  83 SE7       30.11F
6HR MIN TEMP:  59; 6HR MAX TEMP:  61;


$$

LAZ001-002-270700-
NORTHWEST LOUISIANA

CITY           SKY/WX    TMP DP  RH WIND       PRES   REMARKS
SHREVEPORT     CLOUDY    59  57  93 SE10      30.05F
6HR MIN TEMP:  57; 6HR MAX TEMP:  59;

BARKSDALE AFB  NOT AVBL
DTN SHREVEPORT CLOUDY    58  55  90 SE13      30.05F
6HR MIN TEMP:  56; 6HR MAX TEMP:  58;


$$

LAZ014-016-270700-
NORTHEAST LOUISIANA

CITY           SKY/WX    TMP DP  RH WIND       PRES   REMARKS
MONROE         CLOUDY    57  55  93 VRB3      30.11F
6HR MIN TEMP:  55; 6HR MAX TEMP:  57; 6HR PCP: TRACE;

TALLULAH       CLOUDY    59  51  75 SE12      30.14R
6HR MIN TEMP:  56; 6HR MAX TEMP:  59; 6HR PCP: TRACE;


$$



USA.gov is the U.S. government's official web portal to all federal, state and local government web resources and services.